TimeEST,TemperatureF,Dew PointF,Humidity,Sea Level PressureIn,VisibilityMPH,Wind Direction,Wind SpeedMPH,Gust SpeedMPH,PrecipitationIn,Events,Conditions,WindDirDegrees,DateUTC
12:54 AM,28.0,19.0,69,30.11,10.0,South,8.1,-,N/A,,Clear,180,2012-12-23 05:54:00
1:54 AM,28.0,19.0,69,30.09,10.0,South,10.4,-,N/A,,Clear,170,2012-12-23 06:54:00
2:54 AM,30.0,19.0,64,30.08,10.0,SSE,11.5,-,N/A,,Clear,160,2012-12-23 07:54:00
3:54 AM,30.0,19.0,64,30.06,10.0,South,10.4,-,N/A,,Clear,180,2012-12-23 08:54:00
4:54 AM,30.9,21.0,67,30.03,10.0,South,10.4,-,N/A,,Clear,170,2012-12-23 09:54:00
5:54 AM,32.0,21.0,64,30.02,10.0,South,9.2,-,N/A,,Clear,180,2012-12-23 10:54:00
6:54 AM,33.1,21.9,64,30.02,10.0,South,10.4,-,N/A,,Clear,180,2012-12-23 11:54:00
7:54 AM,35.1,23.0,61,30.02,10.0,South,10.4,-,N/A,,Partly Cloudy,190,2012-12-23 12:54:00
8:54 AM,37.0,25.0,62,30.02,10.0,SSW,11.5,-,N/A,,Mostly Cloudy,210,2012-12-23 13:54:00
9:54 AM,39.0,27.0,62,30.03,10.0,SSW,9.2,-,N/A,,Scattered Clouds,210,2012-12-23 14:54:00
10:54 AM,42.1,28.0,58,30.03,10.0,SSW,10.4,-,N/A,,Overcast,210,2012-12-23 15:54:00
11:54 AM,44.1,28.9,55,30.01,10.0,SW,11.5,-,N/A,,Overcast,220,2012-12-23 16:54:00
12:54 PM,46.4,30.2,53,29.96,10.0,SW,12.7,-,N/A,,Clear,220,2012-12-23 17:54:00
1:54 PM,48.9,30.9,50,29.96,10.0,SW,11.5,-,N/A,,Clear,230,2012-12-23 18:54:00
2:54 PM,48.0,30.9,52,29.96,10.0,SW,9.2,-,N/A,,Clear,220,2012-12-23 19:54:00
3:54 PM,48.9,32.0,52,29.96,10.0,SSW,9.2,-,N/A,,Clear,210,2012-12-23 20:54:00
4:54 PM,46.9,33.1,59,29.97,10.0,SSW,9.2,-,N/A,,Clear,210,2012-12-23 21:54:00
5:54 PM,45.0,32.0,60,29.96,10.0,South,5.8,-,N/A,,Clear,170,2012-12-23 22:54:00
6:54 PM,41.0,32.0,70,29.98,10.0,South,6.9,-,N/A,,Clear,180,2012-12-23 23:54:00
7:54 PM,41.0,34.0,76,29.99,10.0,South,8.1,-,N/A,,Clear,190,2012-12-24 00:54:00
8:54 PM,39.0,34.0,82,29.99,10.0,South,8.1,-,N/A,,Clear,170,2012-12-24 01:54:00
9:54 PM,39.0,35.1,86,29.98,10.0,SSE,6.9,-,N/A,,Partly Cloudy,160,2012-12-24 02:54:00
10:54 PM,41.0,37.9,89,29.96,10.0,South,8.1,-,N/A,,Overcast,170,2012-12-24 03:54:00
11:54 PM,42.1,39.9,92,29.94,10.0,South,6.9,-,N/A,,Overcast,170,2012-12-24 04:54:00